Flag for Germany Weather past 2 weeks in Geislingen an der Steige, Baden-Württemberg, Germany

Now
40 °F

Low clouds.


Feels Like: 33 °F
Forecast: 38 / 41 °F
Wind: 12 mph from Northwest

Location: Stoetten

Current Time: Dec 20, 2014 at 2:04:41 AM

Latest Report: Dec 20, 2014 at 1:00 AM


Visibility: 9 mi

Pressure: 30.21 "Hg

Humidity: 100%

Dew point: 40 °F

Location of Geislingen an der SteigeLocation

Historic Weather in Geislingen an der Steige — Graph

°F

Geislingen an der Steige temperature yesterday

Maximum temperature yesterday: 48 °F (at 12:00 AM)
Minimum temperature yesterday: 41 °F (at 10:00 PM)
Average temperature yesterday: 46 °F

Past Weeks' High & Low Weather Summary

 TemperatureHumidityPressure
High49 °F (Dec 13, 3:00 PM)100% (Dec 5, 1:00 AM)30.49 "Hg (Dec 5, 1:00 AM)
Low27 °F (Dec 10, 4:00 AM)63% (Dec 12, 11:00 PM)29.78 "Hg (Dec 12, 8:00 PM)
Average37 °F92%30.08 "Hg
* Reported Dec 5 1:00 AM — Dec 20 1:00 AM, Geislingen an der Steige, Weather by CustomWeather, © 2014

Note: Actual official high and low records may vary slightly from our data, if they occured in-between our weather recording intervals... More about our weather records

Advertising

Geislingen an der Steige weather history for previous 24 hours

 ConditionsComfort  
Time TempWeatherWind HumidityBarometerVisibility
1:00 AM
Dec 20
40 °FLow clouds.12 mph100%30.21 "Hg9 mi
12:00 AM41 °FLight freezing rain. Low clouds.12 mph100%30.17 "Hg0 mi
11:00 PM
Dec 19
42 °FLow clouds.9 mph100%30.14 "Hg0 mi
10:00 PM41 °FRain. Low clouds.10 mph95%30.14 "Hg1 mi
9:00 PM45 °FLight rain. Overcast.15 mph90%30.07 "Hg6 mi
8:00 PM46 °FLight rain. Overcast.14 mph80%30.04 "Hg43 mi
7:00 PM46 °FOvercast.15 mph82%30.05 "Hg43 mi
6:00 PM45 °FOvercast.15 mph87%30.05 "Hg7 mi
5:00 PM46 °FOvercast.14 mph79%30.04 "Hg47 mi
4:00 PM46 °FOvercast.9 mph78%30.05 "Hg47 mi
3:00 PM46 °FOvercast.9 mph78%30.05 "Hg47 mi
2:00 PM46 °FOvercast.8 mph80%30.06 "Hg47 mi
1:00 PM46 °FOvercast.10 mph83%30.08 "Hg47 mi
12:00 PM47 °FOvercast.10 mph79%30.09 "Hg47 mi
11:00 AM47 °FOvercast.7 mph82%30.10 "Hg47 mi
10:00 AM46 °FOvercast.8 mph80%30.10 "Hg47 mi
9:00 AM45 °FOvercast.9 mph83%30.11 "Hg47 mi
8:00 AM45 °FPassing clouds.9 mph84%30.11 "Hg47 mi
7:00 AM45 °FOvercast.10 mph84%30.12 "Hg47 mi
6:00 AM46 °FOvercast.10 mph82%30.12 "Hg47 mi
5:00 AM46 °FOvercast.13 mph80%30.13 "Hg43 mi
4:00 AM45 °FOvercast.10 mph84%30.15 "Hg43 mi
3:00 AM46 °FOvercast.16 mph84%30.14 "Hg43 mi
2:00 AM47 °FOvercast.12 mph86%30.13 "Hg43 mi
Weather by CustomWeather, © 2014

See weather overviewHow to use our weather pages